Regional Weather Roundup
Issued by NWS Huntsville, AL

Home | Current Version | Previous Version | Text Only | Print | Product List | Glossary On
Versions: 1 2 3 4 5 6 7 8 9 10 11 12 13 14 15 16 17 18 19 20 21 22 23 24 25 26 27 28 29 30 31 32 33 34 35 36 37 38 39 40 41 42 43 44 45 46 47 48 49 50
000
ASUS44 KHUN 180424
RWRHUN

WEATHER ROUNDUP FOR THE TENNESSEE VALLEY
NATIONAL WEATHER SERVICE HUNTSVILLE AL
1100 PM CDT THU APR 17 2014

ALZ001>004-180500-
NORTHWEST ALABAMA

CITY           SKY/WX    TMP DP  RH WIND       PRES   REMARKS
COURTLAND HCN    N/A     55 N/A N/A CALM        N/A
RUSSELLVILLE     N/A     54 N/A N/A MISG        N/A
SHOALS AIRPORT CLOUDY    60  46  59 CALM      30.24F
SHOALS TVA RES   N/A     57 N/A N/A MISG        N/A
$$

ALZ005>007-016-180500-
NORTH CENTRAL ALABAMA

CITY           SKY/WX    TMP DP  RH WIND       PRES   REMARKS
CULLMAN AG STN   N/A     57 N/A N/A CALM        N/A
DECATUR AP     CLOUDY    59  46  62 E5        30.25F
HUNTSVILLE AP  CLOUDY    59  46  62 E7        30.24F
HUN NWS/UAH      N/A     60  43  53 SE5         N/A
MERIDIANVILLE  CLOUDY    59  41  51 CALM      30.26S
VINEMONT AP    FAIR      58  46  66 E3        30.27R
$$

ALZ008>010-180500-
NORTHEAST ALABAMA

CITY           SKY/WX    TMP DP  RH WIND       PRES   REMARKS
ALBERTVILLE    CLOUDY    57  50  77 SE7       30.26S
CROSSVILLE       N/A     57 N/A N/A CALM        N/A
FORT PAYNE     CLOUDY    59  32  36 E8        30.29R
SCOTTSBORO AP  CLOUDY    57  45  62 CALM      30.29R
SCOTTSBORO HCN   N/A     55 N/A N/A MISG        N/A
VALLEY HEAD      N/A     57 N/A N/A MISG        N/A
$$

TNZ076-096-097-180500-
SOUTHEASTERN MIDDLE TENNESSEE

CITY           SKY/WX    TMP DP  RH WIND       PRES   REMARKS
FAYETTEVILLE   FAIR      55  42  61 E7        30.26F
TULLAHOMA      CLEAR     57  39  51 CALM      30.27F
WINCHESTER     CLEAR     57  41  54 SE7       30.27F
$$

...SURROUNDING SITES...

CITY           SKY/WX    TMP DP  RH WIND       PRES   REMARKS
ATLANTA        CLOUDY    58  39  49 E12       30.31R
ANNISTON       CLOUDY    60  44  55 NE8       30.28S
BIRMINGHAM     CLOUDY    61  46  57 SE13      30.27S
CHATTANOOGA    CLOUDY    58  40  51 CALM      30.31F
CORINTH        CLOUDY    59  46  63 CALM      30.23S
DALTON         CLOUDY    54  43  66 CALM      30.31S
GADSDEN        NOT AVBL
GOLDEN TRNGL   CLOUDY    57  50  77 CALM      30.26R
HALEYVILLE     FAIR      59  46  61 SE6       30.26S
JACKSON TN     CLOUDY    52  43  71 CALM      30.24F
LEWISBURG      FAIR      49  44  83 CALM      30.26F
MEMPHIS        MOCLDY    62  42  47 CALM      30.21F
MURFREESBORO   FAIR      54  41  61 CALM      30.27S
NASHVILLE      CLOUDY    55  41  59 S3        30.27S
OXFORD MS      MOCLDY    54  48  82 CALM      30.23S
ROME           CLOUDY    59  39  47 E5        30.30S
SAVANNAH       CLOUDY    57  46  66 CALM      30.24F
TUPELO         CLOUDY    58  51  78 CALM      30.22F
TUSCALOOSA     CLOUDY    63  50  62 E7        30.24R
$$

...GULF COAST WEATHER...

CITY           SKY/WX    TMP DP  RH WIND       PRES   REMARKS
GULFPORT       CLOUDY    65  59  81 NE8       30.14S
PASCAGOULA     LGT RAIN  61  60  97 E9        30.14F FOG
MOBILE         LGT RAIN  60  60 100 NE10      30.18F
GULF SHORES    RAIN      60  59  97 NE9       30.16F
PENSACOLA      HVY RAIN  61  60  97 NE10      30.17S FOG
DESTIN         HVY RAIN  64  59  83 E5        30.18R
PANAMA CITY    TSTM      63  61  94 E10       30.19R FOG
APPALACHICOLA  CLOUDY    65  61  87 E12       30.12F
$$




USA.gov is the U.S. government's official web portal to all federal, state and local government web resources and services.